sat.trackr.live / text

‹ back to catalog

STARLINK-31279

NORAD 59086 · 2024-041N

PAYLOAD ACTIVE UNKNOWN

§ Identity

Operator
Country
US
Launch date
2024-02-29
Launch site
AFETR
Launch vehicle
Mass (kg)
RCS (m²)

Purposes: comms

External: N2YO · Heavens-Above · Gunter

§ Orbital elements

Epoch: 2026-09-20T09:14:52.747872Z

Period
94.27 min
Inclination
42.9995°
Eccentricity
0.0000993
Mean motion
15.27577712 rev/d
Perigee alt
482.4 km
Apogee alt
483.7 km
Semi-major
6,861.2 km
B*
1.9089e-6
RAAN
291.5079°
Arg perigee
282.3695°
Mean anomaly
77.7046°
Rev number
14,409

§ Raw data

STARLINK-312791 59086U 24041N   26263.38533273 -.00000209  00000+0  19089-5 0  99952 59086  42.9995 291.5079 0000993 282.3695  77.7046 15.27577712144090

JSON: /api/v1/satellites/59086 · /tle

For live sub-satellite position, see the globe view (requires WebGL).

§ Visibility from observer

Set your observer location to see the next 7 days of passes ≥ 10°. The values pass through the URL so the page stays shareable.

No JS? Fill the form by hand. The geolocation button needs JavaScript.